Location: Dal�� Lhota
(48.7500°N, 14.0167°E)
Time: 07:12:56
(UTC+00:00)

Courier 1B Rocket - Pass Details

Date: 02 August 2021
Orbit: 920 x 1202 km, 28.3° (Epoch: 27 September)

Event Time Altitude Azimuth Distance (km) Brightness Sun altitude
Rises 02:09:19 0° 230° (SW) 3,712 - -12.5°
Reaches altitude 10° 02:14:26 10° 197° (SSW) 2,693 - -11.9°
Exits shadow 02:14:47 10° 194° (SSW) 2,661 6.8 -11.9°
Maximum altitude 02:16:07 11° 181° (S) 2,596 6.8 -11.7°
Drops below altitude 10° 02:17:47 10° 166° (SSE) 2,656 7.0 -11.6°
Sets 02:22:42 0° 133° (SE) 3,561 8.0 -11.0°
